Starlink 3883

operational
NORAD ID: 52493 Int'l Des: 2022-049 Owner: SPXS Country: US Constellation: starlink
LEOCIRCULAR

Starlink 3883について

説明を読み込み中...

リアルタイム位置

3D地球を読み込み中...

次回通過

高度履歴

Altitude vs Time

uPlot chart will show altitude changes over time

軌道要素

1 52493U 22049AU 26062.34000014 .00000282 00000-0 35794-4 0 9992
2 52493 53.2176 77.6258 0001424 93.0099 267.1056 15.08839116211435
Epoch: Mar 3, 2026 • Age: 34 hours

現在のステータス

高度 540.2 km
速度 7.59 km/s
衛星直下点 4.12°N, 129.49°E
打ち上げ日 May 6, 2022
運用期間 3.8 years
タイプ internet

技術仕様

分類 Payload
質量 297.00 kg
乾燥質量 220.00 kg
総質量 297.00 kg
長さ 0.20 m
直径 2.80 m
スパン 9.00 m
形状 Box + pan
製造者 SPXS
バスタイプ Starlink
フェーズステータス In Orbit
所有者/国 SPXS/US

大規模コンステレーション

Loading constellations...